Precipitable_Water
0.52 0.57 0.62 0.65 0.66 0.68 0.67 0.65 0.64 0.59 0.51 0.47 0.47 0.43 0.35 0.33 0.34 0.36 0.37 0.38 0.39 0.38 0.34 0.32 0.31 0.28 0.26 0.26 0.23 0.24 0.24 0.24
0.55 0.60 0.64 0.66 0.67 0.68 0.68 0.65 0.60 0.58 0.50 0.43 0.41 0.34 0.30 0.32 0.34 0.37 0.36 0.35 0.33 0.33 0.32 0.30 0.29 0.27 0.26 0.25 0.24 0.22 0.22 0.25
0.56 0.62 0.65 0.64 0.64 0.67 0.67 0.62 0.57 0.54 0.47 0.43 0.40 0.32 0.32 0.33 0.34 0.33 0.32 0.30 0.29 0.27 0.27 0.29 0.29 0.27 0.25 0.24 0.24 0.23 0.23 0.25
0.59 0.63 0.62 0.64 0.65 0.64 0.61 0.57 0.53 0.50 0.45 0.44 0.36 0.30 0.29 0.26 0.25 0.25 0.27 0.29 0.29 0.28 0.28 0.26 0.25 0.26 0.25 0.26 0.26 0.24 0.21 0.26
0.61 0.62 0.60 0.63 0.61 0.60 0.59 0.54 0.50 0.46 0.44 0.38 0.29 0.28 0.25 0.25 0.26 0.29 0.29 0.28 0.25 0.24 0.24 0.26 0.28 0.31 0.32 0.34 0.36 0.34 0.33 0.30
0.60 0.60 0.61 0.60 0.59 0.60 0.56 0.51 0.44 0.43 0.39 0.34 0.30 0.26 0.27 0.27 0.28 0.25 0.23 0.23 0.24 0.24 0.27 0.30 0.34 0.37 0.41 0.40 0.41 0.42 0.43 0.43
0.60 0.61 0.61 0.59 0.62 0.59 0.51 0.43 0.41 0.38 0.35 0.31 0.28 0.26 0.26 0.25 0.22 0.20 0.21 0.23 0.24 0.30 0.36 0.39 0.41 0.43 0.43 0.45 0.47 0.48 0.48 0.48
0.54 0.55 0.56 0.59 0.55 0.48 0.41 0.40 0.36 0.35 0.30 0.28 0.28 0.27 0.23 0.21 0.21 0.21 0.22 0.29 0.34 0.39 0.42 0.47 0.48 0.50 0.50 0.50 0.48 0.46 0.46 0.44
0.52 0.54 0.56 0.54 0.49 0.43 0.42 0.37 0.29 0.28 0.27 0.28 0.28 0.24 0.21 0.21 0.22 0.26 0.31 0.35 0.40 0.47 0.48 0.50 0.50 0.51 0.50 0.51 0.50 0.47 0.44 0.40
0.50 0.54 0.53 0.51 0.45 0.42 0.32 0.26 0.27 0.27 0.28 0.27 0.24 0.21 0.21 0.23 0.26 0.31 0.35 0.42 0.45 0.48 0.54 0.53 0.54 0.55 0.53 0.51 0.46 0.44 0.43 0.41
0.50 0.50 0.47 0.45 0.40 0.31 0.28 0.28 0.26 0.27 0.27 0.25 0.22 0.21 0.25 0.27 0.30 0.35 0.38 0.45 0.51 0.55 0.56 0.57 0.56 0.54 0.51 0.49 0.46 0.44 0.41 0.39
0.45 0.43 0.43 0.39 0.33 0.28 0.28 0.26 0.25 0.25 0.24 0.23 0.22 0.24 0.28 0.31 0.34 0.39 0.45 0.50 0.55 0.57 0.59 0.58 0.55 0.53 0.50 0.48 0.45 0.43 0.39 0.37
0.41 0.41 0.38 0.32 0.28 0.27 0.26 0.24 0.24 0.23 0.23 0.22 0.24 0.26 0.29 0.33 0.38 0.46 0.52 0.53 0.57 0.61 0.60 0.58 0.55 0.53 0.50 0.47 0.43 0.41 0.39 0.37
0.39 0.37 0.33 0.30 0.27 0.25 0.24 0.24 0.23 0.23 0.21 0.21 0.24 0.28 0.34 0.39 0.43 0.48 0.54 0.57 0.60 0.61 0.61 0.57 0.56 0.54 0.50 0.48 0.44 0.40 0.39 0.39
0.37 0.34 0.31 0.27 0.25 0.24 0.23 0.23 0.22 0.20 0.20 0.22 0.25 0.31 0.37 0.39 0.43 0.45 0.54 0.60 0.61 0.61 0.59 0.59 0.58 0.56 0.52 0.49 0.44 0.39 0.41 0.42
0.35 0.33 0.28 0.25 0.24 0.23 0.23 0.21 0.19 0.18 0.18 0.20 0.26 0.31 0.35 0.39 0.43 0.46 0.52 0.58 0.60 0.60 0.59 0.60 0.60 0.57 0.53 0.50 0.47 0.43 0.43 0.43
0.35 0.31 0.26 0.24 0.22 0.22 0.21 0.19 0.17 0.17 0.18 0.20 0.23 0.27 0.31 0.37 0.40 0.53 0.59 0.61 0.61 0.62 0.63 0.61 0.60 0.57 0.53 0.50 0.50 0.45 0.43 0.44
0.31 0.28 0.25 0.21 0.21 0.21 0.19 0.16 0.15 0.16 0.16 0.17 0.17 0.22 0.28 0.34 0.41 0.63 0.66 0.65 0.65 0.61 0.61 0.63 0.61 0.60 0.51 0.51 0.48 0.48 0.47 0.43
0.30 0.27 0.20 0.21 0.21 0.21 0.17 0.15 0.15 0.15 0.14 0.14 0.15 0.20 0.25 0.31 0.44 0.49 0.68 0.69 0.66 0.64 0.60 0.62 0.63 0.63 0.54 0.51 0.49 0.47 0.48 0.44
Wind_Speed
14 13 11 10 11 14 15 16 18 19 21 23 25 27 28 28 28 28 29 30 31 32 33 33 33 33 33 33 33 33 33 33
12 10 10 10 11 12 13 15 17 20 22 24 26 28 28 27 28 28 29 31 32 33 34 34 34 34 35 35 35 35 35 35
9 10 10 11 12 13 14 16 18 21 23 26 28 29 29 29 30 30 31 33 33 34 35 35 36 36 36 36 36 36 36 36
9 8 9 8 9 12 13 17 19 22 25 27 29 29 30 30 30 31 31 33 34 36 35 35 34 33 33 33 34 35 34 34
8 7 6 8 10 12 15 18 21 24 26 28 29 29 29 30 31 31 32 34 34 33 32 31 31 30 31 33 33 34 34 33
5 5 5 7 9 13 17 20 22 25 27 28 29 29 30 30 30 31 32 31 29 28 29 30 31 33 33 35 37 36 35 34
3 3 4 7 11 16 18 21 23 26 27 28 28 28 28 30 30 29 27 27 27 28 29 30 30 30 31 30 30 31 33 35
3 2 5 10 14 17 20 23 25 26 26 26 27 28 28 26 26 26 27 27 27 28 29 30 30 32 33 34 33 33 34 33
0 3 8 12 16 19 22 24 25 24 26 26 26 25 24 24 25 26 26 27 28 29 29 29 32 33 32 32 32 30 30 31
2 6 11 14 17 21 22 22 23 24 24 23 22 23 23 24 24 24 25 27 29 30 28 32 34 33 32 27 25 25 25 26
6 9 12 15 18 20 20 21 22 22 19 20 22 23 23 23 23 26 26 29 31 29 30 34 34 32 29 26 24 22 21 21
8 10 13 16 17 18 20 20 20 18 19 21 23 23 23 22 24 25 28 30 30 30 32 33 33 30 25 22 21 20 18 17
9 12 14 15 16 18 18 18 18 19 20 22 22 22 23 24 25 26 28 29 31 35 33 32 31 29 24 20 18 16 12 12
11 13 14 15 16 17 17 18 18 20 21 22 23 23 25 24 25 26 29 31 34 34 33 33 32 29 24 20 17 14 8 8
12 13 14 16 16 17 17 18 19 21 22 22 23 24 24 24 26 28 31 32 33 35 36 35 33 28 23 19 17 13 5 2
12 13 15 15 16 18 18 19 20 21 22 23 24 25 25 25 27 30 31 32 33 36 36 37 36 29 24 18 17 14 8 7
13 14 15 16 17 18 19 20 22 23 23 24 25 26 26 28 29 31 32 32 33 36 36 39 38 33 30 25 18 15 14 14
13 14 15 17 18 18 19 20 22 24 25 25 27 28 29 30 31 32 33 35 35 35 36 39 39 36 36 30 24 19 20 20
14 14 16 17 18 20 20 21 22 24 25 26 28 30 31 32 33 33 34 35 37 37 37 37 39 37 40 38 33 27 26 29
Wind_Direction
267 261 255 268 282 291 296 299 303 306 308 310 310 310 310 308 305 301 297 296 295 293 292 290 289 287 285 282 278 275 273 271
259 251 260 270 288 296 302 303 306 308 311 313 313 313 311 309 308 305 302 300 299 296 293 291 289 286 284 281 279 275 273 270
254 254 260 272 283 295 306 310 310 311 313 314 314 313 311 309 308 305 303 302 301 299 296 292 289 286 283 280 277 275 272 267
254 256 264 273 287 301 308 312 313 314 316 316 316 315 314 312 311 309 307 305 303 301 298 294 291 287 284 281 278 275 271 265
246 252 256 281 295 307 313 316 317 317 317 318 317 316 314 313 312 311 309 307 306 303 300 297 293 290 287 284 280 276 270 264
230 244 268 292 307 314 318 318 319 319 320 320 319 318 316 316 316 314 313 312 311 309 306 302 296 293 290 286 281 275 268 262
210 231 283 309 316 321 320 321 323 323 322 322 322 322 321 320 319 319 319 317 316 313 309 306 300 297 295 293 285 277 269 262
182 259 307 319 323 325 326 326 326 325 327 328 326 325 324 326 326 324 322 321 319 316 315 310 306 300 296 292 286 280 273 263
137 316 325 326 328 329 329 329 329 330 330 330 330 331 334 332 330 330 329 328 324 321 318 315 310 307 304 300 289 278 272 262
4 340 333 331 333 333 333 334 334 334 335 337 340 340 338 337 338 337 335 333 330 326 322 319 315 310 307 303 298 287 274 264
354 341 339 338 338 338 340 339 339 342 346 348 346 346 342 342 340 339 337 336 335 333 330 328 327 319 310 298 301 290 282 266
359 351 346 344 345 347 346 347 351 356 354 352 350 350 348 348 347 346 345 343 347 341 338 338 336 333 325 313 303 295 281 263
6 358 354 354 355 355 357 1 4 1 357 356 357 358 356 352 351 350 352 350 348 345 343 339 341 342 340 331 322 314 281 258
10 5 6 4 5 8 10 10 8 5 3 3 1 358 358 358 359 356 353 349 350 351 348 346 343 343 346 345 342 336 302 250
14 14 15 17 19 17 16 14 11 8 7 5 5 4 6 2 0 357 357 356 357 358 358 355 353 349 353 357 359 1 357 199
22 25 26 25 23 20 20 18 15 13 11 10 8 9 7 6 4 2 1 3 3 3 4 6 7 10 10 8 14 22 46 100
33 34 33 29 25 25 25 22 19 16 16 15 13 13 13 12 10 9 10 10 9 10 11 13 16 23 26 25 32 41 71 94
44 41 37 33 31 31 27 25 24 23 23 22 21 21 19 17 16 16 17 16 15 15 17 19 25 32 34 37 47 65 80 100
47 46 41 38 37 34 32 31 29 29 29 29 27 25 23 23 25 24 23 20 21 22 25 27 31 39 42 48 56 70 85 100